273  
ASUS43 KFSD 290810  
RWRSD  
 
WEATHER ROUNDUP FOR SOUTH DAKOTA  
NATIONAL WEATHER SERVICE SIOUX FALLS SD  
300 AM CDT THU OCT 29 2020  
 
NOTE: "FAIR" INDICATES FEW OR NO CLOUDS BELOW 12,000 FEET WITH NO  
SIGNIFICANT WEATHER AND/OR S TO VISIBILITY
.  
 
 
SDZ001>005-009-010-012>017-290900-  
NORTHWEST AND NORTH CENTRAL SOUTH DAKOTA  
 
CITY SKY/WX TMP DP RH WIND PRES REMARKS
 
FAITH N/A 30 27 88 S6 30.12F WCI 24  
MOBRIDGE CLEAR 30 26 85 E6 30.14S WCI 24  

 
 
SDZ012>016-024>037-041>051-057-063-072>074-290900-  
SOUTHWEST AND SOUTH CENTRAL SOUTH DAKOTA  
 
CITY SKY/WX TMP DP RH WIND PRES REMARKS
 
RAPID CTY ARPT CLOUDY 34 31 88 SE5 30.12F WCI 30  
PIERRE CLOUDY 34 30 85 SW6 30.16S WCI 29  
CUSTER CLOUDY 32 30 92 SW5 30.12S WCI 27  
PHILIP PTCLDY 27 25 92 W6 30.17S WCI 20  
PINE RIDGE MOCLDY 33 30 88 NE3 30.16F  
SPEARFISH CLOUDY 36 34 93 SE6 30.09F  
WINNER FAIR 30 26 85 S5 30.18R WCI 25  

 
 
SDZ004>011-016>023-039-040-290900-  
NORTHEAST SOUTH DAKOTA  
 
CITY SKY/WX TMP DP RH WIND PRES REMARKS
 
ABERDEEN PTCLDY 23 21 92 N3 30.21R  
WATERTOWN CLEAR 20 19 96 N6 30.16S WCI 12  
BROOKINGS CLEAR 25 24 96 N6 30.16R WCI 18  
SISSETON N/A 25 22 88 NW5 30.19S WCI 19  

 
 
SDZ017-020-022-023-036>040-048>070-290900-  
SOUTHEAST SOUTH DAKOTA  
 
CITY SKY/WX TMP DP RH WIND PRES REMARKS
 
SIOUX FALLS CLEAR 30 25 81 N7 30.16S WCI 23  
HURON CLEAR 23 22 96 NW6 30.19F WCI 16  
CHAMBERLAIN CLEAR 27 27 100 CALM 30.19R  
MADISON FAIR 27 27 100 N8 30.16R WCI 18  
MITCHELL CLEAR 30 26 85 NW3 30.19S  
YANKTON CLEAR 27 25 92 NW9 30.17R WCI 18  

 
 
ABBREVIATIONS USED IN REMARKS  
TC - TEMPERATURE IN CELSIUS  
WCI - WIND CHILL INDEX  
HX - HEAT INDEX  
VSB - VISIBILITY  
 
 
 
CLICK HERE TO GO TO PREVIOUS BULLETINS.

The Nexlab SD Page Main Text Page